STARLINK-11229 [DTC]

Last updated on Tue Oct 01 2024 00:02:04 GMT+0000 (Coordinated Universal Time)

1 60908U 24154F 24274.20966784 .00040714 00000+0 25113-3 0 9990 2 60908 53.1599 203.0155 0000245 11.7114 348.3912 15.76767341 5966
UTC large
Height (km)
Speed (km/s)
/
Latitude / Longitude
Inclination (degrees)
Orbital Period (minutes)
Azimuth
Elevation
Range (km)
Doppler Factor

Next 0 passes for location: London (51.5072 / 0.1276)

Sorry there are no passes over London.